User: anonymous   Login
Location: Campillo
(40.8621°N, 4.2488°W)
Time: 15:48:22
(UTC+00:00)
Language:

CZ-4C R/B - Orbit

View from above orbital plane
View from above orbital plane
View from above satellite
View from above satellite

Ground track
Ground track

The orbit data is extracted from the following two-line orbital elements,

1 36416U 10009D   21215.58225890 -.00000027  00000-0  36121-4 0  9997
2 36416  63.4184 172.4860 0535658 355.6868   3.9645 13.69599030570766
Epoch (UTC): 03 August 2021 13:58:27
Eccentricity: 0.0535658
inclination: 63.4184°
perigee height: 606 km
apogee height: 1396 km
right ascension of ascending node: 172.4860°
argument of perigee: 355.6868°
revolutions per day: 13.69599030
mean anomaly at epoch: 3.9645°
orbit number at epoch: 57076

The dashed part of the orbit path shows where the satellite is in the earth's shadow,  

DLR